Air Resources Laboratory banner image
Air Resources Laboratory web site National Oceanic and Atmospheric Administration (NOAA)

ny roundup


Office: ALY

ASUS41 KALY 200110
RWRALY

NEW YORK STATE HOURLY WEATHER ROUNDUP
NATIONAL WEATHER SERVICE ALBANY NY
900 PM EDT SUN AUG 19 2018

NOTE: "FAIR" INDICATES FEW OR NO CLOUDS BELOW 12,000 FEET WITH NO
SIGNIFICANT WEATHER AND/OR NO OBSTRUCTIONS TO VISIBILITY.

NYZ032-033-038>043-046>054-057>066-NYZ062>081-082-084-200200-
EAST


CITY           SKY/WX    TMP DP  RH WIND       PRES   REMARKS
ALBANY         CLOUDY    73  58  59 CALM      30.09R
GLENS FALLS    LGT RAIN  64  64 100 CALM      30.09R
POUGHKEEPSIE   CLOUDY    71  58  63 NE5       30.07R
NEWBURGH       CLOUDY    72  61  68 NE7       30.09R
MONTGOMERY     CLOUDY    70  62  76 NE5       30.07R
WHITE PLAINS   MOCLDY    68  65  90 NE5       30.07R
ISLIP          MOCLDY    67  66  97 E3        30.07R
NEW YORK CITY  CLOUDY    73  64  73 NE7       30.05R
CENTRAL PARK   CLOUDY    72  64  76 NE3       30.09R
$$

NYZ005>009-017-018-044>046-055-056-200200-
CENTRAL


CITY           SKY/WX    TMP DP  RH WIND       PRES   REMARKS
FULTON         FAIR      66  62  87 CALM      30.07R
SYRACUSE       FAIR      67  63  87 E5        30.06R
ROME           FAIR      68  60  75 CALM      30.10R
ELMIRA         FAIR      65  62  90 CALM      30.07R
BINGHAMTON     CLOUDY    66  61  84 E5        30.10R
MONTICELLO     CLOUDY    65  60  84 E3        30.12R
$$

NYZ026>034-041>043-087-200200-
NORTH


CITY           SKY/WX    TMP DP  RH WIND       PRES   REMARKS
WATERTOWN      FAIR      69  64  84 S5        30.06R
FORT DRUM      NOT AVBL
OGDENSBURG     FAIR      63  60  91 NE3       30.06S
MASSENA        FAIR      65  61  87 CALM      30.08R
SARANAC LAKE   FAIR      59  58  96 CALM      30.12R
PLATTSBURGH    FAIR      66  60  81 W5        30.08
$$

NYZ001>004-010>016-019>021-085-200200-
WEST


CITY           SKY/WX    TMP DP  RH WIND       PRES   REMARKS
NIAGARA FALLS  FAIR      68  63  84 CALM      30.04R
BUFFALO        FAIR      70  64  81 E6        30.05R
DUNKIRK        MOCLDY    68  66  93 CALM      30.04R
JAMESTOWN      CLOUDY    66  63  90 NW5       30.08S
WELLSVILLE     FAIR      64  61  90 E5        30.11R
ROCHESTER      CLOUDY    70  65  84 E6        30.07R
PENN YAN       MOCLDY    70  63  78 CALM      30.08R
$$

             KEY
       WCI = WIND CHILL INDEX
       VSB = VISIBILITY
       HX  = HEAT INDEX
$$




Office: OKX ASUS41 KOKX 200106 RWROKX Regional Weather Roundup National Weather Service New York NY 900 PM EDT SUN AUG 19 2018 Note: "FAIR" indicates few or no clouds below 12,000 feet with no significant weather and/or obstructions to visibility. NYZ071-072-176-178-NJZ106-104-200200- New York City Metro Area CITY SKY/WX TMP DP RH WIND PRES REMARKS Central Park CLOUDY 72 64 76 NE3 30.09R Bronx Bot Gard NOT AVBL Bronx Lehman C N/A 70 64 83 NE5 N/A LaGuardia Arpt CLOUDY 73 64 73 NE7 30.05R Queens College N/A 72 66 83 E5 N/A Kennedy Intl CLOUDY 70 67 90 E7 30.07R Breezy Point N/A 68 N/A N/A E10G16 N/A Brooklyn Coll N/A 70 64 83 E6 N/A Staten Island N/A 70 66 88 SE2 N/A Newark/Liberty CLOUDY 73 64 73 NE7 30.05R Teterboro CLOUDY 72 65 78 NE3 30.05R $$ NYZ177-179-078>081-200200- Long Island New York CITY SKY/WX TMP DP RH WIND PRES REMARKS Jones Beach N/A 68 N/A N/A E12 N/A Wantagh N/A 70 63 78 NE5 N/A Hempstead N/A 70 64 83 E2 30.09R Matinecock Pt N/A 70 N/A N/A SE2 N/A Farmingdale CLOUDY 68 63 84 E6 30.07R MacArthur/ISP MOCLDY 67 66 97 E3 30.07R Stony Brook N/A 68 63 83 E3 N/A Shirley LGT RAIN 67 66 97 CALM 30.07R Mt Sinai Harb N/A N/A N/A N/A E12G18 N/A Westhampton MOCLDY 69 58 67 NE12 30.08R East Hampton CLOUDY 67 59 74 N6 30.07R Southold N/A 68 59 73 NE10 N/A Montauk N/A 70 61 73 NE9G17 30.08R $$ NYZ052-065-067-200200- Hudson Valley CITY SKY/WX TMP DP RH WIND PRES REMARKS White Plains MOCLDY 68 65 90 NE5 30.07R Larchmont Harb N/A 70 N/A N/A N7 N/A Croton On Huds N/A 72 N/A N/A E5 N/A Somers N/A 68 61 77 N1 N/A Brewster N/A 68 59 73 E1 N/A Newburgh CLOUDY 72 61 68 NE7 30.09R Montgomery CLOUDY 70 62 76 NE5 30.07R Otisville N/A 66 63 88 NE1 N/A Warwick N/A 66 66 100 E1 N/A Suffern N/A 66 66 100 CALM N/A Poughkeepsie CLOUDY 71 58 63 NE5 30.07R Albany CLOUDY 73 58 59 CALM 30.09R $$ NJZ001-105-106-008-010-013-015-019>022-104-200200- New Jersey CITY SKY/WX TMP DP RH WIND PRES REMARKS Newark/Liberty CLOUDY 73 64 73 NE7 30.05R Teterboro CLOUDY 72 65 78 NE3 30.05R Caldwell CLOUDY 71 67 87 NE3 30.07R Somerville CLOUDY 70 66 87 CALM 30.04R Linden CLOUDY 71 65 81 CALM 30.06R Perth Amboy N/A 70 N/A N/A E5 N/A Sussex CLOUDY 69 65 86 CALM 30.07S Andover N/A 68 66 93 CALM 30.08R Trenton CLOUDY 69 65 86 NE3 30.05R Millville CLOUDY 70 66 87 NE10 30.04R Atlantic City CLOUDY 70 69 97 NE14G22 30.02R Wrightstown PTCLDY 67 66 97 NE7 30.03 Toms River CLOUDY 68 64 87 NE8 30.06R Belmar CLOUDY 69 64 84 E8 30.07R $$ PAZ047>061-062-071-200200- Eastern Pennsylvania CITY SKY/WX TMP DP RH WIND PRES REMARKS Philadelphia LGT RAIN 66 64 93 E14 30.06R Allentown CLOUDY 71 64 78 CALM 30.07R Scranton CLOUDY 70 61 73 CALM 30.07R $$ CTZ002-004>006-009-010-012-RIZ004-006-007-MAZ004-011-015-200200- Southern New England In CT CITY SKY/WX TMP DP RH WIND PRES REMARKS Bradley Intl CLOUDY 70 56 61 NE6 30.10R Hartford FAIR 70 56 61 NE8 30.09R Danbury CLOUDY 66 64 93 CALM 30.10R Wtrbury/Oxford CLOUDY 67 58 72 E7 30.11R Norwalk Harbor N/A 72 N/A N/A NE22 N/A Bridgeport MOCLDY 72 58 61 NE12 30.08R Meriden CLOUDY 70 58 65 CALM 30.08R New Haven CLOUDY 70 58 65 NE8 30.08R Chester FAIR 66 57 72 NE6 30.10R Groton CLOUDY 68 58 70 NE10 30.07R Willimantic FAIR 67 59 75 N5 30.10R In RI CITY SKY/WX TMP DP RH WIND PRES REMARKS Providence MOCLDY 67 60 78 NE10 30.10R Block Island LGT RAIN 67 61 81 NE14G23 30.07R Westerly CLOUDY 69 61 75 NE3 30.08R In MA CITY SKY/WX TMP DP RH WIND PRES REMARKS Boston CLOUDY 69 61 75 NE20 30.10 Worcester FAIR 62 58 86 NE9 30.13R Westfield FAIR 69 57 65 NE9 30.11R Provincetown CLOUDY 65 64 97 NE12 30.08R Nantucket LGT RAIN 66 66 100 N13 30.03R FOG $$ ANZ330-335-338-340-345-350-353-355-200200- Coastal Marine Observations STATION/POSITION TIME SKY/WX TEMP WIND PRES VSBY WAVE AIR SEA DIR/SP/G HT/PER (UTC) (F) (DEG/KT/KT) (MB) (MI) (FT/S) NY Harb Entrance 0050 71 75 80/ 17/ 19 1017.5 4/ 7 20 S Fire Island 0050 71 71 60/ 19/ 23 1017.0 6/ 7 Great South Bay 0030 70 78 70/ 10/ 16 N/A 23 SSW Montauk P 0050 70 72 1017.5 6/ 6 15 E Barnegat Li 0000 77 N/A 7/ 7 Hudson Canyon 0050 72 60/ 19/ 23 1015.7 7/ 7 Kings Point 0030 71 75 80/ 4/ 5 1018.7 Execution Rocks 0030 75 360/ 8/ 10 N/A Western LI Sound 2345 72 360/ 6/ 8 N/A 1/ 4 Central LI Sound 0015 72 76 50/ 17/ 21 N/A 2/ 3 Robbins Reef 0042 73 50/ 9/ 11 1018.1 $$ >>>>>>>>>>>>>>>>>>>>>>>>>>>> KEY <<<<<<<<<<<<<<<<<<<<<<<<<<< > < > SKY/WX - Sky Condition/Present Weather < > TMP - Temperature in Fahrenheit < > DP - Dew Point in Fahrenheit < > RH - Relative Humidity in Percent < > WIND - Direction (from) and Speed in MPH < > PRES - Mean Sea Level Pressure (inches of Hg) < > WCI - Wind Chill Index < > VSB - Visibility in Miles < > HX - Heat Index < > TC - Temperature in Celsius < > VRB - Varibale Wind Direction < > < >>>>>>>>>>>>>>>>>>>>>>>>>>>> KEY <<<<<<<<<<<<<<<<<<<<<<<<<<<
Office: BUF ASUS61 KBUF 200024 RTPBUF MAX/MIN TEMPERATURE AND PRECIPITATION TABLE FOR WESTERN NY AND THE EASTERN LAKE ONTARIO REGION NATIONAL WEATHER SERVICE BUFFALO, NY 824 PM EDT Sun Aug 19 2018 Values represent: High temperature over the last 18 hours Low temperature over the last 18 hours Precipitation over the last 24 hours .BR BUF 0819 ES DH19/TAIRZS/TAIRZI/PPDRZZ/SFDRZZ/SDIRZZ : : Official Climate Stations : Max Min 24 HR Snow Snow : Location Temp Temp Precip Fall Depth BUF :Buffalo Airport : 77 / 60 / 0.00 / 0.0 / 0 ROC :Rochester Airport : 77 / 60 / 0.00 / 0.0 / 0 ART :Watertown Airport : 81 / 53 / 0.00 / / : : Unofficial Supplemental Sites : IAG :Niagara Falls Airport : 76 / 59 / 0.00 / / DKK :Dunkirk Airport : 75 / 57 / 0.00 / / ELZ :Wellsville Airport : 73 / 59 / 0.00 / / DSV :Dansville Airport : 77 / 61 / 0.00 / / FZY :Oswego Airport : 78 / 56 / 0.00 / / GTB :Fort Drum : 80 / 55 / T / / .END These data are preliminary and have not undergone final quality control by the National Centers for Environmental Information (formerly National Climatic Data Center - NCDC). Therefore... these data are subject to revision. Final and certified climate data can be accessed at www.ncdc.noaa.gov. $$
Office: BOX ASUS41 KBOX 200110 RWRBOX REGIONAL WEATHER ROUNDUP NATIONAL WEATHER SERVICE BOSTON/NORTON MA 900 PM EDT SUN AUG 19 2018 NOTE: "FAIR" INDICATES FEW OR NO CLOUDS BELOW 12,000 FEET WITH NO SIGNIFICANT WEATHER AND/OR OBSTRUCTIONS TO VISIBILITY. MAZALL-200200- EASTERN MASSACHUSETTS CITY SKY/WX TMP DP RH WIND PRES REMARKS BOSTON CLOUDY 69 61 75 NE20 30.10R BEVERLY CLOUDY 68 61 78 NE9 30.11R LAWRENCE FAIR 66 59 78 NE6 30.14R BEDFORD FAIR 64 59 83 N5 30.11R BLUE HILL N/A 64 61 90 NE9G20 30.10R NORWOOD CLOUDY 70 62 76 NE8 30.09R MARSHFIELD CLOUDY 68 64 88 NE9G17 30.08S PLYMOUTH CLOUDY 67 63 87 NE12G20 30.08S TAUNTON CLOUDY 67 61 81 CALM 30.08R NEW BEDFORD CLOUDY 67 63 87 NE8 30.06R $$ MAZALL-200200- CAPE COD AND THE ISLANDS CITY SKY/WX TMP DP RH WIND PRES REMARKS FALMOUTH DRIZZLE 66 64 94 NE13 30.07S HYANNIS LGT RAIN 66 66 100 N8 30.04S FOG CHATHAM CLOUDY 66 65 96 NE8 30.06R FOG PROVINCETOWN CLOUDY 65 64 97 NE12 30.08R NANTUCKET LGT RAIN 66 66 100 N13 30.03R FOG MARTHAS VNYRD CLOUDY 67 64 90 N10 30.05R $$ MAZALL-200200- CENTRAL AND WESTERN MASSACHUSETTS CITY SKY/WX TMP DP RH WIND PRES REMARKS WORCESTER FAIR 62 58 86 NE9 30.13R FITCHBURG FAIR 63 59 87 N5 30.14R ORANGE MOCLDY 67 59 75 NE6 30.15R SPRINGFIELD MOCLDY 67 57 71 E5 30.10R WESTFIELD FAIR 69 57 65 NE9 30.11R NORTH ADAMS FAIR 63 58 83 E3 30.11R PITTSFIELD FAIR 65 57 75 CALM 30.12R $$ RIZALL-200200- RHODE ISLAND CITY SKY/WX TMP DP RH WIND PRES REMARKS PROVIDENCE MOCLDY 66 61 82 NE10 30.10R NEWPORT CLOUDY 67 61 81 NE10 30.08R BLOCK ISLAND LGT RAIN 67 61 81 NE14G23 30.07R SMITHFIELD CLOUDY 65 60 84 NE12 30.10R WESTERLY CLOUDY 69 61 75 NE3 30.08R $$ CTZALL-200200- CONNECTICUT CITY SKY/WX TMP DP RH WIND PRES REMARKS BRADLEY INTL CLOUDY 70 56 61 NE6 30.10R HARTFORD FAIR 70 56 61 NE8 30.09R BRIDGEPORT MOCLDY 72 58 61 NE12 30.08R DANBURY CLOUDY 66 64 93 CALM 30.10R GROTON CLOUDY 68 58 70 NE10 30.07R NEW HAVEN CLOUDY 70 58 65 NE8 30.08R CHESTER FAIR 66 57 72 NE6 30.10R MERIDEN CLOUDY 70 58 65 CALM 30.08R WILLIMANTIC FAIR 67 59 75 N5 30.10R OXFORD CLOUDY 67 58 72 E7 30.11R $$ MEZ002-015-021-024-NHZ003-005-008-011-012-014-VTZ005-008-200200- NORTHERN NEW ENGLAND CITY SKY/WX TMP DP RH WIND PRES REMARKS PORTLAND ME MOCLDY 66 60 81 E5 30.14R BANGOR ME FAIR 65 57 75 NE5 30.15R CONCORD NH FAIR 62 59 90 CALM 30.14R MANCHESTER NH MOCLDY 67 59 75 NE3 30.12R NASHUA NH FAIR 64 62 93 NW3 30.14R PORTSMOUTH NH MOCLDY 66 58 77 N5 30.11R JAFFREY NH FAIR 62 60 93 CALM 30.17R KEENE NH FAIR N/A N/A N/A SW3 30.14R BURLINGTON VT FAIR 71 63 75 SE3 30.08R MT. WASHINGTON PTCLDY 46 36 66 NE5 N/A $$ NYZ052-076-200200- EASTERN NEW YORK CITY SKY/WX TMP DP RH WIND PRES REMARKS ALBANY CLOUDY 73 58 59 CALM 30.09R NEW YORK CITY CLOUDY 73 64 73 NE7 30.05R $$ ANZALL-200200- MARINE OBSERVATIONS STATION/POSITION TIME TEMP WIND PRES VSBY WAVE AIR SEA DIR/SP/G HT/PER (UTC) (F) (DEG/KT/KT) (MB) (MI) (FT/S) BOSTON BUOY 0050 67 68 50/ 16/ 19 1018.1R 5/ 7 BUZZARDS BAY 0000 67 20/ 18/ 20 1017.7R NANTUCKET SOUND 0050 68 75 10/ 16/ 19 1017.1R 2/ 3 MASS BAY-STELLWA 0004 67 67 60/ 19/ 23 1016.9R 1 7/8 6/ 5 ISLE OF SHOALS 0000 67 30/ 10/ 11 1019.0R S OF BLOCK IS 0043 75 N/A 5/ 5 $$ ......................KEY......................... SKY/WX - SKY CONDITION/PRESENT WEATHER TMP - TEMPERATURE IN FAHRENHEIT DWPT - DEWPOINT IN FAHRENHEIT RH - RELATIVE HUMIDITY IN PERCENT WIND - DIRECTION AND SPEED IN MPH PRES - MEAN SEA LEVEL PRESSURE IN INCHES OF HG WCI - WIND CHILL INDEX VSB - VISIBILITY IN MILES HX - HEAT INDEX TC - TEMPERATURE IN CELSIUS VRB - VARIABLE WIND DIRECTION N/A - NOT AVAILABLE
Office: GYX ASUS41 KGYX 200105 RWRGYX WEATHER ROUNDUP FOR MAINE AND NEW HAMPSHIRE NATIONAL WEATHER SERVICE GRAY ME 900 PM EDT SUN AUG 19 2018 MEZ002-005-006-010-012-015-018-020-021-024-026-027-029-200200- MAINE CITY SKY/WX TMP DP RH WIND PRES REMARKS PORTLAND MOCLDY 66 60 81 E5 30.14R SANFORD FAIR 59 58 96 CALM 30.14R BAR HARBOR FAIR 62 58 86 CALM 30.15R WISCASSET MOCLDY 65 60 84 CALM 30.15R ROCKLAND CLOUDY 65 59 81 CALM 30.14R FRYEBURG FAIR 61 59 93 CALM 30.15R LEWISTONAUBURN MOCLDY 65 60 84 CALM 30.15R AUGUSTA FAIR 68 57 68 CALM 30.15R WATERVILLE FAIR 65 57 75 N3 30.11S BANGOR FAIR 65 57 75 NE5 30.15R GREENVILLE NOT AVBL MILLINOCKET FAIR 61 57 87 CALM 30.18R HOULTON FAIR 60 55 83 E6 30.17R PRESQUE ISLE FAIR 62 57 83 VRB3 30.18R FRENCHVILLE FAIR 69 52 54 CALM 30.17R CARIBOU FAIR 65 57 75 S3 30.17R $$ NHZ002-005-008-009-011-012-014-200200- NEW HAMPSHIRE CITY SKY/WX TMP DP RH WIND PRES REMARKS PORTSMOUTH MOCLDY 66 58 77 N5 30.11R ROCHESTER FAIR 62 60 93 NW3 30.14R NASHUA FAIR 64 62 93 NW3 30.14R MANCHESTER MOCLDY 67 59 75 NE3 30.12R CONCORD FAIR 62 59 90 CALM 30.14R LACONIA FAIR 64 60 87 N3 30.15R PLYMOUTH FAIR 63 60 91 CALM 30.14R BERLIN FAIR 59 57 93 CALM 30.16R WHITEFIELD FAIR 59 57 93 CALM 30.15R JAFFREY FAIR 62 60 93 CALM 30.17R KEENE FAIR N/A N/A N/A SW3 30.14R LEBANON FAIR 64 58 80 S6 30.12R MT WASHINGTON PTCLDY 46 36 66 NE5 N/A $$ VTZ005-007-008-200200- VERMONT CITY SKY/WX TMP DP RH WIND PRES REMARKS ST JOHNSBURY N/A 67 62 84 MISG 30.11R MONTPELIER FAIR 67 63 87 CALM 30.16R BURLINGTON FAIR 71 63 75 SE3 30.08R $$ MAZ007-012-024-CTZ003-RIZ002-NYZ038-NYZ072-200200- SOUTHERN NEW ENGLAND AND NY CITY SKY/WX TMP DP RH WIND PRES REMARKS BOSTON CLOUDY 69 61 75 NE20 30.10R WORCESTER FAIR 62 58 86 NE9 30.13R NANTUCKET LGT RAIN 66 66 100 N13 30.03R FOG PROVIDENCE MOCLDY 67 60 78 NE10 30.10R HARTFORD CLOUDY 70 56 61 NE6 30.10R ALBANY CLOUDY 73 58 59 CALM 30.09R NEW YORK CITY CLOUDY 73 64 73 NE7 30.05R $$ ANZ081-ANZ082-ANZ150-NHZ014-MEZ023>029-200200- COASTAL MARINE OBSERVATIONS STATION/POSITION TIME TEMP WIND PRES WAVE AIR SEA DIR/SP/G HT/PER (UTC) (F) (DEG/KT/KT) (MB) (FT/S) MOUNT DESERT ROC 0100 58 40/ 11/ 11 1020.2R MATINICUS ROCK 0000 61 60/ 15/ 16 1019.2R ISLE OF SHOALS 0000 67 30/ 10/ 11 1019.0R JEFFREYS LEDGE 0036 69 N/A 6/ 7 $$ .............KEY.............. WCI - WIND CHILL TC - TEMPERATURE IN CELSIUS VSB - VISIBILITY IN MILES HX - HEAT INDEX FAIR- INDICATES FEW OR NO CLOUDS BELOW 12,000 FT, WITH NO SIGNIFICANT WEATHER AND/OR OBSTRUCTIONS TO VISIBILITY. ASUS41 KGYX 200110 RWRGYX WEATHER ROUNDUP FOR MAINE AND NEW HAMPSHIRE NATIONAL WEATHER SERVICE GRAY ME 900 PM EDT SUN AUG 19 2018 MEZ002-005-006-010-012-015-018-020-021-024-026-027-029-200200- MAINE CITY SKY/WX TMP DP RH WIND PRES REMARKS PORTLAND MOCLDY 66 60 81 E5 30.14R SANFORD FAIR 59 58 96 CALM 30.14R BAR HARBOR FAIR 62 58 86 CALM 30.15R WISCASSET MOCLDY 65 60 84 CALM 30.15R ROCKLAND CLOUDY 65 59 81 CALM 30.14R FRYEBURG FAIR 61 59 93 CALM 30.15R LEWISTONAUBURN MOCLDY 65 60 84 CALM 30.15R AUGUSTA FAIR 68 57 68 CALM 30.15R WATERVILLE FAIR 65 57 75 N3 30.11S BANGOR FAIR 65 57 75 NE5 30.15R GREENVILLE NOT AVBL MILLINOCKET FAIR 61 57 87 CALM 30.18R HOULTON FAIR 60 55 83 E6 30.17R PRESQUE ISLE FAIR 62 57 83 VRB3 30.18R FRENCHVILLE FAIR 69 52 54 CALM 30.17R CARIBOU FAIR 65 57 75 S3 30.17R $$ NHZ002-005-008-009-011-012-014-200200- NEW HAMPSHIRE CITY SKY/WX TMP DP RH WIND PRES REMARKS PORTSMOUTH MOCLDY 66 58 77 N5 30.11R ROCHESTER FAIR 62 60 93 NW3 30.14R NASHUA FAIR 64 62 93 NW3 30.14R MANCHESTER MOCLDY 67 59 75 NE3 30.12R CONCORD FAIR 62 59 90 CALM 30.14R LACONIA FAIR 64 60 87 N3 30.15R PLYMOUTH FAIR 63 60 91 CALM 30.14R BERLIN FAIR 59 57 93 CALM 30.16R WHITEFIELD FAIR 59 57 93 CALM 30.15R JAFFREY FAIR 62 60 93 CALM 30.17R KEENE FAIR N/A N/A N/A SW3 30.14R LEBANON FAIR 64 58 80 S6 30.12R MT WASHINGTON PTCLDY 46 36 66 NE5 N/A $$ VTZ005-007-008-200200- VERMONT CITY SKY/WX TMP DP RH WIND PRES REMARKS ST JOHNSBURY N/A 67 62 84 MISG 30.11R MONTPELIER FAIR 67 63 87 CALM 30.16R BURLINGTON FAIR 71 63 75 SE3 30.08R $$ MAZ007-012-024-CTZ003-RIZ002-NYZ038-NYZ072-200200- SOUTHERN NEW ENGLAND AND NY CITY SKY/WX TMP DP RH WIND PRES REMARKS BOSTON CLOUDY 69 61 75 NE20 30.10R WORCESTER FAIR 62 58 86 NE9 30.13R NANTUCKET LGT RAIN 66 66 100 N13 30.03R FOG PROVIDENCE MOCLDY 66 61 82 NE10 30.10R HARTFORD CLOUDY 70 56 61 NE6 30.10R ALBANY CLOUDY 73 58 59 CALM 30.09R NEW YORK CITY CLOUDY 73 64 73 NE7 30.05R $$ ANZ081-ANZ082-ANZ150-NHZ014-MEZ023>029-200200- COASTAL MARINE OBSERVATIONS STATION/POSITION TIME TEMP WIND PRES WAVE AIR SEA DIR/SP/G HT/PER (UTC) (F) (DEG/KT/KT) (MB) (FT/S) MOUNT DESERT ROC 0100 58 40/ 11/ 11 1020.2R MATINICUS ROCK 0000 61 60/ 15/ 16 1019.2R ISLE OF SHOALS 0000 67 30/ 10/ 11 1019.0R JEFFREYS LEDGE 0036 69 N/A 6/ 7 $$ .............KEY.............. WCI - WIND CHILL TC - TEMPERATURE IN CELSIUS VSB - VISIBILITY IN MILES HX - HEAT INDEX FAIR- INDICATES FEW OR NO CLOUDS BELOW 12,000 FT, WITH NO SIGNIFICANT WEATHER AND/OR OBSTRUCTIONS TO VISIBILITY.
Office: PHI ASUS41 KPHI 200113 RWRPHI REGIONAL WEATHER ROUNDUP NATIONAL WEATHER SERVICE MOUNT HOLLY NJ 900 PM EDT SUN AUG 19 2018 NOTE: "FAIR" INDICATES FEW OR NO CLOUDS BELOW 12,000 FEET WITH NO SIGNIFICANT WEATHER AND/OR OBSTRUCTIONS TO VISIBILITY. * = STATION DOES NOT REPORT PRECIPITATION (E.G. RAIN, SNOW, ETC.) OR FOG. NJZ015>026-200200- SOUTHERN NEW JERSEY CITY SKY/WX TMP DP RH WIND PRES REMARKS POMONA CLOUDY 70 69 97 NE14G22 30.02R WILDWOOD* CLOUDY 71 69 93 NE13 30.01R MILLVILLE CLOUDY 70 66 87 NE10 30.04R WRIGHTSTOWN PTCLDY 67 66 97 NE7 30.03R MOUNT HOLLY CLOUDY 67 67 100 CALM 30.05R TRENTON CLOUDY 69 65 86 NE3 30.05R $$ NJZ001>014-200200- NORTHERN NEW JERSEY CITY SKY/WX TMP DP RH WIND PRES REMARKS SUSSEX CLOUDY 69 65 86 CALM 30.07S ANDOVER* N/A 68 66 93 CALM 30.08R MORRISTOWN CLOUDY 68 68 100 NE3 30.07R NEWARK CLOUDY 73 64 73 NE7 30.05R TETERBORO CLOUDY 72 65 78 NE3 30.05R CALDWELL CLOUDY 71 67 87 NE3 30.07R SOMERVILLE CLOUDY 70 66 87 CALM 30.04R ALLAIRE* CLOUDY 69 64 84 E8 30.07R TOMS RIVER* CLOUDY 68 64 87 NE8 30.06R $$ PAZ043-044-047-054-055-060>062-066>071-200200- EASTERN PENNSYLVANIA CITY SKY/WX TMP DP RH WIND PRES REMARKS PHILADELPHIA LGT RAIN 66 64 93 E14 30.06R NORTH PHILA CLOUDY 71 65 81 E3 30.07R BLUE BELL* CLOUDY 64 64 100 NE3 30.07S DOYLESTOWN CLOUDY 68 65 90 CALM 30.06R QUAKERTOWN* CLOUDY 68 66 94 CALM 30.07S PERKASIE* CLOUDY 66 66 100 CALM 30.08R POTTSTOWN LGT RAIN 65 65 100 CALM 30.08R FOG LANCASTER CLOUDY 67 67 100 E7 30.07R FOG COATESVILLE CLOUDY 66 64 94 NE5G16 30.08R FOG READING CLOUDY 68 68 100 CALM 30.05R ALLENTOWN CLOUDY 71 64 78 CALM 30.07R MOUNT POCONO CLOUDY 64 61 90 E5 30.12R HAZLETON CLOUDY 66 61 82 MISG 30.12R LEHIGHTON CLOUDY 68 64 88 CALM 30.08R WILKES BARRE CLOUDY 70 61 73 CALM 30.07R $$ DEZALL-MDZ008-012-015-019-020-200200- DELAWARE AND EASTERN MARYLAND CITY SKY/WX TMP DP RH WIND PRES REMARKS WILMINGTON CLOUDY 69 66 90 NE13 30.05R DOVER CLOUDY 72 67 87 NE6 30.02R GEORGETOWN CLOUDY 74 70 87 NE13 30.02R EASTON MOCLDY 73 70 88 E9 30.04R OCEAN CITY CLOUDY 74 71 91 NE12 30.01R WALLOPS ISLAND MOCLDY 77 74 90 N10 30.00R CAMBRIDGE PTCLDY 73 70 88 NE7 30.00R SALISBURY CLOUDY 74 71 91 NE12 30.00R $$ PAZ001-021-NYZ056-072-MDZ011-DCZ001-200200- OTHER NEARBY LOCATIONS CITY SKY/WX TMP DP RH WIND PRES REMARKS HARRISBURG CLOUDY 69 66 90 E7 30.05R STATE COLLEGE MOCLDY 68 64 88 CALM 30.05R FOG WILLIAMSPORT LGT RAIN 71 64 78 E5 30.04R BINGHAMTON CLOUDY 66 61 84 E5 30.10R NEW YORK CITY CLOUDY 72 64 76 NE3 30.09R BALTIMORE MOCLDY 72 68 87 NE13 30.01R WASHINGTON DC CLOUDY 77 68 73 NE16 30.00R $$